Flag for U.S.A. Weather past 2 weeks in Sidney, Montana, U.S.A.

Now
48 °F

Sunny.


Feels Like: 43 °F
Forecast: 39 / 60 °F
Wind: 13 mph from West

Location: Sidney-Richland

Current Time: Mar 29, 2015 at 10:36:34 AM

Latest Report: Mar 29, 2015 at 10:15 AM


Visibility: 10 mi

Pressure: 30.10 "Hg

Humidity: 66%

Dew point: 37 °F

Location of SidneyLocation

Historic Weather in Sidney — Graph

°F

Sidney temperature yesterday

Maximum temperature yesterday: 81 °F (at 2:15 PM)
Minimum temperature yesterday: 32 °F (at 2:55 AM)
Average temperature yesterday: 50 °F

Past Weeks' High & Low Weather Summary

 TemperatureHumidityPressure
High81 °F (Mar 28, 2:15 PM)100% (Mar 23, 4:15 AM)30.58 "Hg (Mar 23, 4:15 AM)
Low16 °F (Mar 17, 5:35 AM)21% (Mar 14, 4:55 PM)29.43 "Hg (Mar 28, 3:35 PM)
Average41 °F64%30.01 "Hg
* Reported Mar 14 9:15 AM — Mar 29 9:35 AM, Sidney, Weather by CustomWeather, © 2015

Note: Actual official high and low records may vary slightly from our data, if they occured in-between our weather recording intervals... More about our weather records

Advertising

Sidney weather history for previous 24 hours

 ConditionsComfort  
Time TempWeatherWind HumidityBarometerVisibility
9:35 AM
Sun, Mar 29
46 °FSunny.15 mph71%30.10 "Hg10 mi
9:15 AM45 °FSunny.13 mph76%30.10 "Hg10 mi
8:55 AM45 °FSunny.14 mph76%30.10 "Hg10 mi
8:35 AM43 °FSunny.16 mph76%30.10 "Hg10 mi
8:15 AM41 °FSunny.14 mph81%30.11 "Hg10 mi
7:55 AM39 °FSunny.9 mph81%30.10 "Hg10 mi
7:35 AM37 °FClear.13 mph87%30.10 "Hg10 mi
7:15 AM37 °FClear.14 mph87%30.10 "Hg10 mi
6:55 AM37 °FClear.12 mph81%30.10 "Hg10 mi
6:35 AM37 °FClear.7 mph81%30.10 "Hg10 mi
6:15 AM37 °FClear.9 mph81%30.08 "Hg10 mi
5:55 AM36 °FClear.10 mph87%30.08 "Hg10 mi
5:35 AM37 °FClear.10 mph81%30.06 "Hg10 mi
5:15 AM37 °FClear.10 mph81%30.06 "Hg10 mi
4:55 AM37 °FClear.10 mph87%30.05 "Hg10 mi
4:35 AM37 °FClear.10 mph81%30.04 "Hg10 mi
4:15 AM37 °FClear.13 mph87%30.02 "Hg10 mi
3:55 AM39 °FClear.15 mph81%30.01 "Hg10 mi
3:35 AM39 °FClear.14 mph81%30.00 "Hg10 mi
3:15 AM39 °FClear.16 mph81%29.99 "Hg10 mi
2:55 AM39 °FClear.17 mph81%29.97 "Hg10 mi
2:35 AM39 °FClear.18 mph81%29.96 "Hg10 mi
2:15 AM41 °FPassing clouds.21 mph76%29.94 "Hg10 mi
1:55 AM43 °FMostly cloudy.22 mph76%29.91 "Hg10 mi
1:35 AM43 °FOvercast.22 mph81%29.88 "Hg10 mi
1:15 AM43 °FOvercast.23 mph81%29.86 "Hg10 mi
12:55 AM43 °FOvercast.22 mph81%29.84 "Hg10 mi
12:35 AM43 °FOvercast.28 mph87%29.80 "Hg10 mi
12:15 AM43 °FMostly cloudy.25 mph87%29.78 "Hg9 mi
11:55 PM
Sat, Mar 28
45 °FMostly cloudy.29 mph81%29.75 "Hg5 mi
11:35 PM45 °FPartly cloudy.29 mph87%29.72 "Hg6 mi
11:15 PM46 °FPartly cloudy.33 mph82%29.69 "Hg5 mi
10:55 PM45 °FPartly cloudy.25 mph87%29.68 "Hg6 mi
10:35 PM45 °FOvercast.31 mph87%29.66 "Hg5 mi
10:15 PM46 °FPartly cloudy.30 mph76%29.66 "Hg7 mi
9:35 PM50 °FPartly cloudy.32 mph62%29.66 "Hg10 mi
9:15 PM52 °FClear.26 mph50%29.67 "Hg10 mi
8:55 PM52 °FPassing clouds.26 mph50%29.67 "Hg10 mi
8:35 PM52 °FPassing clouds.24 mph58%29.67 "Hg10 mi
8:15 PM52 °FPartly sunny.20 mph62%29.67 "Hg10 mi
7:55 PM52 °FOvercast.22 mph62%29.66 "Hg10 mi
7:35 PM54 °FOvercast.20 mph58%29.65 "Hg10 mi
7:15 PM54 °FPartly sunny.20 mph58%29.65 "Hg10 mi
6:55 PM52 °FScattered clouds.24 mph62%29.62 "Hg10 mi
6:35 PM54 °FPartly sunny.25 mph63%29.60 "Hg10 mi
6:15 PM54 °FSunny.32 mph67%29.59 "Hg10 mi
5:55 PM55 °FPassing clouds.35 mph63%29.59 "Hg10 mi
5:35 PM57 °FPassing clouds.29 mph67%29.57 "Hg10 mi
5:15 PM63 °FPassing clouds.33 mph52%29.55 "Hg10 mi
4:55 PM64 °FPassing clouds.35 mph43%29.53 "Hg10 mi
4:35 PM66 °FSunny.26 mph37%29.51 "Hg10 mi
4:15 PM66 °FScattered clouds.37 mph43%29.49 "Hg9 mi
3:55 PM75 °FPartly sunny.43 mph22%29.44 "Hg4 mi
3:35 PM79 °FPassing clouds.21 mph21%29.43 "Hg10 mi
2:55 PM77 °FPassing clouds.21 mph22%29.45 "Hg10 mi
2:35 PM79 °FSunny.21 mph21%29.47 "Hg10 mi
2:15 PM81 °FSunny.15 mph21%29.48 "Hg10 mi
1:55 PM79 °FSunny.18 mph23%29.49 "Hg10 mi
1:35 PM75 °FSunny.18 mph25%29.51 "Hg10 mi
1:15 PM75 °FSunny.17 mph25%29.53 "Hg10 mi
12:55 PM73 °FSunny.16 mph29%29.54 "Hg10 mi
12:35 PM73 °FSunny.15 mph27%29.56 "Hg10 mi
12:15 PM70 °FSunny.14 mph29%29.58 "Hg10 mi
11:55 AM66 °FSunny.16 mph35%29.59 "Hg10 mi
11:35 AM66 °FSunny.18 mph35%29.61 "Hg10 mi
11:15 AM63 °FSunny.16 mph37%29.62 "Hg10 mi
10:55 AM61 °FSunny.17 mph42%29.64 "Hg10 mi
10:35 AM55 °FSunny.17 mph51%29.65 "Hg10 mi
10:15 AM54 °FSunny.17 mph54%29.66 "Hg10 mi
Weather by CustomWeather, © 2015

See weather overviewHow to use our weather pages